Theta_e
299 300 300 300 300 300 302 303 304 305 306 307 308 308 307 305 303 302 305 307 305 308 311 312 307 308 307 309 310 310 313 314 315 318 319 319 317 317 315 315 318 321 323 327 331
298 298 299 299 298 298 298 299 301 302 302 304 305 306 308 306 305 307 306 306 307 309 312 309 308 308 309 309 310 311 312 313 314 316 317 317 315 317 315 315 317 321 326 325 321
299 299 299 298 299 299 299 296 295 294 297 302 302 302 305 303 307 312 307 309 311 307 310 309 307 307 309 310 310 311 311 313 313 313 313 313 314 313 314 316 317 318 324 327 320
300 299 299 299 299 299 299 297 295 294 293 293 297 302 303 305 308 309 308 308 307 311 310 309 308 308 310 312 310 311 311 311 311 311 311 312 312 313 313 314 314 316 319 327 323
300 299 299 299 299 299 299 298 295 294 293 293 293 296 302 305 306 306 303 302 302 303 309 309 308 309 311 312 311 311 311 310 310 310 310 310 311 312 312 313 312 312 318 326 328
298 298 299 299 299 299 299 299 297 295 293 292 293 294 301 303 306 305 304 304 306 304 306 310 308 307 308 309 311 311 310 310 310 310 309 309 310 310 311 312 312 311 313 319 324
298 297 297 298 298 298 298 299 298 295 295 294 294 299 300 301 302 304 305 305 304 305 304 307 310 307 307 309 309 309 310 311 310 310 310 310 310 310 311 311 312 312 312 312 318
297 297 296 296 297 297 297 298 296 295 295 294 295 300 300 302 303 304 304 304 305 305 304 304 308 309 308 307 308 309 310 311 312 312 310 309 311 311 311 311 311 311 312 312 311
296 296 295 295 296 296 296 296 295 294 294 298 301 301 303 302 304 303 304 306 306 306 304 304 308 309 309 308 309 310 311 312 313 311 311 310 312 312 311 312 312 312 312 312 312
296 295 295 295 296 296 295 295 295 296 295 300 300 299 303 299 298 298 301 305 304 305 306 306 308 310 310 311 311 310 311 311 313 313 310 311 311 312 311 310 312 311 312 312 312
295 295 295 295 296 296 294 296 295 297 294 295 294 294 294 295 296 296 297 297 300 300 307 306 309 311 311 311 310 310 311 312 313 313 310 310 310 312 312 311 311 310 310 311 311
295 295 296 295 295 293 296 295 294 293 294 293 293 293 294 296 297 298 298 299 297 298 304 307 309 309 309 310 311 311 310 311 312 313 307 309 310 311 311 312 311 311 311 310 310
295 294 295 295 294 296 296 295 293 294 293 293 292 293 296 298 297 299 296 296 300 299 299 303 307 307 309 310 310 313 312 311 311 311 308 307 309 310 311 311 310 310 311 310 310
294 294 294 295 296 295 296 294 293 292 296 295 295 298 298 296 298 294 294 295 295 297 298 299 302 303 306 308 310 311 311 310 312 312 313 311 312 314 315 315 314 312 311 310 310
293 293 293 293 295 296 295 294 293 295 297 293 296 296 294 294 294 294 294 295 296 296 296 301 301 303 305 306 308 310 309 310 310 311 309 310 311 312 313 314 315 315 313 312 311
293 292 292 295 295 294 293 294 293 296 295 293 293 294 294 294 294 294 294 293 294 296 297 297 301 303 306 307 306 310 309 309 310 310 312 312 313 314 315 315 314 315 315 314 313
292 292 291 292 294 292 293 295 296 295 294 293 294 294 294 294 294 294 294 294 295 296 298 298 299 303 302 303 308 309 310 312 313 313 313 311 312 314 314 314 314 315 314 315 315
292 292 292 291 294 293 293 295 293 294 294 294 294 294 294 294 293 294 293 293 294 294 298 300 304 303 303 303 307 308 311 312 310 312 311 310 312 314 313 313 313 312 314 314 315
291 292 293 293 292 293 294 294 293 293 293 293 293 293 293 294 293 293 293 293 294 295 297 296 298 297 297 303 305 309 310 310 312 308 312 311 310 311 313 313 312 312 313 314 314
291 292 293 292 293 293 294 294 294 294 293 293 293 293 293 292 293 293 293 293 293 293 295 297 298 298 301 304 306 308 309 309 310 313 312 311 311 313 313 313 314 315 313 312 313
292 292 292 292 291 293 294 294 294 293 293 293 293 293 292 292 292 292 293 293 294 294 295 296 298 300 302 306 305 307 308 309 310 311 314 312 311 312 314 314 315 314 311 312 312
291 293 292 291 293 293 294 293 292 292 292 292 293 293 292 292 293 293 293 294 294 294 296 296 298 301 303 304 306 308 308 308 310 311 311 312 312 310 310 309 309 311 306 305 308
292 292 291 291 293 294 293 291 291 292 292 292 292 293 293 292 292 293 294 294 294 295 297 298 299 300 299 304 305 307 308 308 309 310 312 314 312 309 310 310 308 308 307 306 305
290 294 291 291 292 293 293 293 292 292 291 291 292 292 292 293 293 293 293 294 294 294 296 297 299 298 299 300 303 305 308 309 309 311 311 313 312 311 311 310 309 308 308 307 306
290 293 292 293 292 292 292 292 292 293 292 291 292 292 292 292 293 293 293 294 294 296 296 298 299 300 299 300 303 307 308 309 309 310 311 311 315 311 309 309 308 307 307 308 307
290 291 291 292 291 292 292 292 292 292 292 292 292 292 293 293 293 293 293 293 293 295 295 297 297 298 298 300 300 303 306 309 309 310 310 311 310 310 309 307 308 308 308 309 308
289 289 290 292 292 293 293 292 292 292 292 292 292 292 293 293 292 293 293 293 294 294 295 295 296 296 298 299 299 303 304 304 309 309 309 311 311 308 309 309 309 309 309 309 309
Wind_Speed
19 18 18 19 20 17 15 16 17 16 16 18 22 27 30 29 20 15 6 9 16 18 17 13 10 7 6 7 9 6 8 14 21 19 16 7 7 10 5 12 8 8 2 7 14
20 20 21 22 22 21 20 20 20 20 21 20 20 22 27 31 23 9 8 6 10 12 7 8 9 8 9 7 8 11 12 21 17 18 14 15 9 14 7 13 12 12 7 11 12
21 21 21 23 22 22 24 24 24 23 22 22 22 22 25 27 16 3 2 3 6 6 5 8 8 8 13 13 14 10 19 17 18 13 17 18 15 13 12 15 17 18 16 14 15
22 22 22 21 22 23 23 24 26 26 24 22 20 20 23 19 5 4 6 9 10 8 6 5 7 10 10 13 17 15 22 21 23 14 12 15 18 16 19 20 4 9 10 19 19
18 21 23 23 23 24 25 26 25 25 25 24 21 19 18 15 10 11 15 16 16 15 8 7 10 13 18 11 17 18 20 22 18 22 18 18 17 20 22 19 11 7 8 16 17
17 18 19 22 24 24 25 27 27 25 24 25 25 19 11 12 7 12 15 26 19 17 12 9 7 9 18 21 17 15 14 22 24 20 21 17 23 25 21 23 20 15 12 14 18
22 23 20 20 21 25 26 27 29 27 24 25 24 15 15 24 19 24 21 22 21 19 19 13 11 11 6 15 20 22 21 19 21 21 16 14 23 26 27 27 20 25 22 18 18
23 22 24 22 23 24 27 29 30 29 29 18 18 6 8 10 12 13 15 17 13 15 19 19 16 17 20 18 18 11 18 21 17 21 16 14 22 17 27 31 32 29 26 23 24
21 25 23 23 25 27 28 31 29 24 13 11 5 2 6 5 9 13 14 17 18 15 14 16 11 17 14 16 15 20 18 20 18 10 14 19 17 16 25 22 27 32 34 32 27
21 24 21 23 25 24 27 28 16 7 5 4 4 8 2 10 16 22 16 15 19 21 12 15 12 13 16 16 21 19 21 21 23 14 20 21 24 18 12 11 24 27 28 30 33
20 20 21 23 23 23 27 18 13 2 22 2 19 15 20 15 20 14 17 26 27 25 15 18 15 26 27 27 25 25 21 25 20 20 13 20 21 22 22 26 22 21 21 29 31
18 21 20 20 21 19 14 13 9 9 14 20 18 14 15 13 11 10 21 13 16 19 20 16 27 27 23 26 28 29 29 29 18 13 7 15 22 20 21 23 30 29 32 32 27
19 20 21 18 16 11 13 11 13 11 7 8 5 5 5 11 10 8 22 17 17 20 20 23 27 19 26 28 29 30 32 27 25 10 10 16 23 24 26 28 33 34 34 33 33
18 18 19 19 7 14 10 14 15 12 5 3 1 2 5 12 1 27 21 11 8 13 19 19 33 32 29 28 30 29 26 25 24 18 18 13 16 20 16 23 25 30 34 34 33
18 18 18 15 11 10 10 12 12 4 5 4 3 3 10 10 22 23 22 12 19 24 5 30 26 26 30 34 26 33 20 22 22 20 14 22 12 21 17 25 25 21 29 32 34
17 17 17 12 12 8 9 10 6 2 5 5 5 7 15 24 25 25 12 21 23 20 20 31 39 26 19 19 29 20 21 21 16 13 12 28 20 20 19 23 17 19 26 30 31
19 17 16 14 7 12 6 5 3 4 6 2 8 18 15 22 20 17 18 22 17 17 18 26 22 32 31 30 24 25 18 8 10 8 14 19 17 28 14 16 17 21 26 28 28
19 17 17 13 8 7 2 2 4 2 6 15 18 17 21 18 11 19 22 21 23 18 13 12 18 20 29 30 15 30 26 10 15 12 23 12 14 18 13 22 30 23 21 20 22
21 17 13 9 6 7 3 5 4 8 6 13 15 17 14 15 18 19 19 23 12 17 5 8 11 25 26 29 25 21 28 30 14 1 7 12 26 23 13 10 11 16 22 25 22
18 12 8 4 3 7 3 10 7 7 11 13 16 9 18 22 20 19 20 17 14 16 14 6 16 18 19 23 30 23 25 22 16 15 13 15 21 12 16 22 21 17 14 18 20
9 7 6 4 4 5 6 8 6 15 11 6 12 18 19 18 17 21 21 23 18 15 23 20 13 15 9 8 30 24 23 16 20 17 12 9 11 4 15 17 11 8 6 15 22
8 4 6 6 4 5 7 4 3 13 14 10 8 11 14 17 18 19 19 18 30 28 20 19 7 13 22 11 17 29 28 27 16 24 21 10 10 4 5 8 7 9 5 6 10
7 5 8 10 5 8 9 5 6 13 11 5 10 12 14 17 12 12 16 25 29 20 6 6 4 10 16 9 12 10 24 28 25 18 21 13 9 3 6 6 4 5 3 0 3
8 3 6 15 15 9 13 11 12 8 10 10 12 14 15 15 16 11 22 13 26 33 25 21 4 10 13 19 23 10 17 27 28 20 18 20 15 18 8 9 7 6 3 2 4
6 5 4 3 8 14 14 11 17 18 16 16 8 10 13 9 16 17 19 20 21 16 17 5 7 9 14 17 14 11 15 25 28 25 21 16 6 19 4 8 5 4 2 1 3
7 7 4 11 13 13 17 16 20 24 16 20 17 22 15 15 16 21 20 17 18 16 15 8 6 15 15 10 13 11 12 18 25 22 20 17 2 9 8 4 5 3 1 2 3
18 21 16 13 14 11 12 15 16 19 18 19 17 18 18 17 24 23 22 26 21 19 18 10 7 11 8 11 17 5 4 8 18 23 20 16 16 3 6 6 4 3 4 5 4
Wind_Direction
21 15 11 1 356 344 317 312 319 327 333 344 341 335 333 335 323 330 336 268 281 276 277 289 286 258 263 238 229 244 245 244 247 255 268 276 252 228 261 261 217 207 214 151 181
17 14 11 7 4 1 354 337 328 312 312 316 329 337 334 340 338 320 277 284 304 290 278 291 283 256 237 234 223 220 237 243 257 269 280 275 267 269 238 228 218 208 186 162 192
7 5 4 2 358 354 351 350 354 343 322 307 310 320 329 341 331 174 250 306 337 337 296 278 275 271 248 232 223 227 243 257 256 271 274 277 267 253 253 254 231 219 203 188 189
355 355 355 353 353 348 345 346 346 344 342 346 321 316 322 340 327 309 284 303 318 328 329 300 262 243 249 232 232 250 251 255 264 270 263 257 270 259 245 247 310 273 236 191 195
347 346 344 344 344 343 340 339 344 341 341 338 334 320 327 314 274 289 291 299 302 303 317 295 270 254 254 261 256 237 257 262 255 261 251 267 257 255 262 252 245 248 209 198 202
338 336 337 335 334 334 333 331 335 339 337 329 322 320 321 272 276 316 304 311 307 307 289 281 258 286 281 271 261 273 259 262 254 249 253 249 256 252 250 250 246 227 224 214 213
343 338 326 328 329 327 326 325 325 333 328 321 311 307 287 259 299 309 310 313 310 290 281 264 272 261 292 260 271 260 270 261 247 248 242 259 257 248 248 251 246 235 231 226 222
343 336 330 335 327 323 321 320 325 328 322 323 310 278 264 298 317 344 330 332 330 308 266 266 264 268 254 260 282 260 248 256 247 234 227 211 257 256 240 236 243 239 233 228 228
343 338 342 336 333 330 327 325 330 321 329 347 28 232 292 309 349 339 340 330 333 338 286 241 257 243 241 231 254 235 253 238 251 227 214 212 261 250 244 240 242 239 237 233 231
340 338 343 338 330 330 334 338 352 1 331 321 33 294 225 341 319 310 318 323 331 322 310 232 228 239 222 213 229 233 237 245 255 223 219 228 240 250 229 254 245 244 240 235 233
340 339 341 335 331 332 344 355 11 268 356 62 294 280 294 322 320 338 318 299 293 301 277 236 225 229 225 224 238 250 248 238 241 229 228 242 254 253 248 245 238 242 243 242 232
334 334 337 339 342 343 9 35 24 333 304 291 286 285 291 315 311 351 358 348 316 276 280 249 243 242 244 242 239 239 242 248 258 247 222 266 264 255 254 249 250 247 243 239 238
338 339 344 341 346 2 5 15 1 347 279 302 281 306 354 345 333 356 352 344 329 284 272 270 266 272 236 249 240 234 234 237 245 254 240 272 269 259 253 250 247 245 243 242 239
336 339 337 337 358 344 345 338 350 347 289 302 37 97 353 329 46 328 333 313 285 289 299 278 264 260 269 256 239 242 234 249 250 249 253 225 276 266 262 242 229 235 233 235 234
332 334 341 340 326 336 324 330 340 347 315 47 83 18 351 4 310 332 323 305 291 295 317 268 264 246 242 250 256 250 247 245 243 245 264 255 263 265 240 244 240 236 229 233 230
331 330 334 333 331 316 329 345 343 258 257 342 336 358 334 329 322 321 336 319 292 278 282 280 261 258 273 273 239 266 243 242 233 233 238 240 235 262 244 246 249 247 239 228 229
329 328 326 322 312 309 339 344 268 222 14 279 340 334 316 312 320 326 329 319 302 297 292 299 284 259 244 259 257 224 221 196 205 201 232 226 224 236 246 233 249 243 240 237 228
327 329 323 322 277 280 281 261 258 328 264 299 307 314 304 318 319 321 317 309 305 281 290 303 295 233 238 219 264 209 210 205 195 197 234 194 228 227 239 244 249 251 245 246 234
326 331 324 311 249 228 189 240 266 306 329 318 320 301 315 306 316 316 309 303 318 316 328 313 281 309 291 235 211 226 215 218 245 78 262 214 237 268 257 245 241 245 240 235 225
328 325 306 301 174 187 215 252 277 264 294 296 296 289 303 315 315 313 309 293 293 304 304 278 301 300 291 257 218 231 219 219 235 241 231 229 237 240 199 226 228 237 225 232 225
325 317 267 256 168 200 245 268 284 279 287 288 296 299 300 302 308 300 294 288 304 312 309 297 259 274 288 242 211 224 221 217 224 231 231 242 240 269 237 255 249 246 277 248 223
300 263 244 219 239 241 256 245 265 275 287 282 278 278 280 307 305 297 293 293 309 314 296 288 284 281 289 244 254 218 215 214 221 216 236 248 237 47 339 321 304 277 274 273 252
290 249 256 216 256 241 244 271 266 278 277 276 261 269 289 289 293 287 300 298 307 300 284 339 269 313 323 273 222 267 219 216 219 232 233 232 232 49 16 341 330 307 285 103 185
302 276 197 213 248 273 281 272 272 242 274 273 270 285 286 283 280 289 300 307 316 318 293 275 256 266 275 285 291 197 236 225 219 221 224 228 228 255 10 352 348 355 330 100 171
277 262 272 251 234 242 254 275 278 271 269 275 280 258 281 283 299 293 312 314 324 334 337 290 268 276 287 301 302 301 244 216 230 227 226 229 224 231 14 339 337 331 320 110 142
279 290 274 261 259 263 271 265 268 278 275 276 261 282 286 283 282 293 305 309 308 313 325 308 293 318 301 323 326 303 272 245 224 232 235 239 288 313 347 337 344 16 46 93 150
291 291 276 274 270 256 249 257 266 280 280 272 274 280 282 285 291 293 293 287 278 286 291 286 308 328 301 323 317 265 344 313 242 230 229 225 226 64 347 352 35 55 88 94 108